Content
SEND FEEDBACK

Daily
Averages
Monthly
Summary
United States of America

RIMROCK, ARIZONA


Home > North America > United States > Arizona
Elevation: 3830 feet     Latitude: 34 40N     Longitude: 111 43W

WEATHER
 
SELECT A DAY
Number of Records: 130,443;   Date Range: 1/4/95 - 8/12/14
 
SHARE

PRINT THIS DATA

[ ← Previous Day ]
WEATHER ALMANAC - MARCH 5, 2014
[ Next Day → ]
[ °C ]   °F
Weather ElementAverageHighLow
Temperature54.3 °F64.4 °F (2:55 pm)44.6 °F (5:55 am)
Dewpoint29.1 °F32 °F (12:35 am)23 °F (6:55 pm)
Humidity39.6 %57 % (1:15 am)23 % (6:55 pm)
Barometer30.14 in30.21 in (10:15 am)30.07 in (12:35 am)
Wind Speed5.3 mph15 mph (11:35 pm)
Wind Gust16.1 mph (6:15 am)
Weather ElementAverage
Visibility10 mi
Wind DirectionESE (111.4 °)

Weather ElementTotal
Precipitation---
Heating Degree Days10.5 (Base 65)
Growing Degree Days4.5 (Base 50)
Averaged from 71 records on March 5, 2014
WEATHER CONDITIONS BREAKOUT
WIND DIRECTION BREAKOUT
WEATHER BY HOUR - MARCH 5, 2014
[ °C ]   °F
Local TimeTemperatureDewpointHumidityBarometerVisibilityWind DirectionWind SpeedGust SpeedPrecipitationEventsConditions
12:35 AM48.2 °F32.0 °F54 %30.07 in10.0 miNE (50°)8.1 mphClear
12:55 AM50.0 °F32.0 °F50 %30.07 in10.0 miEast (80°)6.9 mphClear
1:15 AM46.4 °F32.0 °F57 %30.07 in10.0 miEast (90°)5.8 mphClear
1:35 AM48.2 °F32.0 °F54 %30.08 in10.0 miENE (70°)8.1 mphClear
1:55 AM48.2 °F32.0 °F54 %30.08 in10.0 miENE (70°)5.8 mphClear
2:10 AM48.2 °F32.0 °F54 %30.09 in10.0 miENE (60°)4.6 mphClear
2:35 AM48.2 °F32.0 °F54 %30.08 in10.0 miEast (80°)3.5 mphClear
2:55 AM48.2 °F30.2 °F50 %30.09 in10.0 miNNE (30°)6.9 mphClear
3:15 AM46.4 °F30.2 °F53 %30.09 in10.0 miWNW (290°)4.6 mphClear
3:35 AM48.2 °F28.4 °F46 %30.09 in10.0 miCalmClear
3:55 AM46.4 °F30.2 °F53 %30.08 in10.0 miNW (310°)3.5 mphClear
4:15 AM46.4 °F30.2 °F53 %30.08 in10.0 miNW (310°)3.5 mphClear
4:35 AM46.4 °F30.2 °F53 %30.08 in10.0 miNW (320°)3.5 mphClear
4:55 AM46.4 °F28.4 °F50 %30.08 in10.0 miNNE (30°)5.8 mphClear
5:15 AM46.4 °F28.4 °F50 %30.10 in10.0 miNNE (20°)4.6 mphClear
5:35 AM46.4 °F28.4 °F50 %30.10 in10.0 miENE (60°)8.1 mphClear
5:55 AM44.6 °F26.6 °F49 %30.10 in10.0 miENE (60°)6.9 mphClear
6:15 AM46.4 °F26.6 °F46 %30.11 in10.0 miENE (60°)12.7 mph16.1 mphClear
6:35 AM46.4 °F26.6 °F46 %30.12 in10.0 miENE (60°)6.9 mph16.1 mphClear
6:50 AM46.4 °F26.6 °F46 %30.12 in10.0 miNE (40°)8.1 mphClear
7:15 AM44.6 °F28.4 °F53 %30.14 in10.0 miNE (50°)6.9 mphClear
7:35 AM46.4 °F28.4 °F50 %30.15 in10.0 miCalmClear
7:55 AM48.2 °F28.4 °F46 %30.15 in10.0 miENE (70°)5.8 mphClear
8:15 AM50.0 °F28.4 °F43 %30.16 in10.0 miEast (90°)8.1 mphClear
8:35 AM50.0 °F30.2 °F47 %30.17 in10.0 miEast (90°)4.6 mphClear
8:55 AM51.8 °F30.2 °F44 %30.19 in10.0 miESE (110°)3.5 mphClear
9:15 AM51.8 °F32.0 °F47 %30.19 in10.0 miCalmClear
9:35 AM51.8 °F32.0 °F47 %30.20 in10.0 miCalmClear
9:55 AM53.6 °F32.0 °F44 %30.19 in10.0 miCalmClear
10:15 AM53.6 °F28.4 °F38 %30.21 in10.0 miCalmClear
10:35 AM55.4 °F30.2 °F38 %30.21 in10.0 miCalmClear
10:55 AM55.4 °F32.0 °F41 %30.20 in10.0 miSouth (190°)5.8 mphClear
11:15 AM57.2 °F32.0 °F38 %30.21 in10.0 miWest (270°)4.6 mphClear
11:35 AM59.0 °F32.0 °F36 %30.21 in10.0 miSSW (210°)5.8 mphClear
11:55 AM59.0 °F30.2 °F34 %30.21 in10.0 miCalmClear
12:15 PM60.8 °F32.0 °F34 %30.19 in10.0 miSW (230°)4.6 mphClear
12:35 PM59.0 °F32.0 °F36 %30.18 in10.0 miSSW (210°)4.6 mphClear
12:55 PM60.8 °F30.2 °F31 %30.18 in10.0 miWSW (240°)3.5 mphClear
1:15 PM62.6 °F32.0 °F32 %30.17 in10.0 miSW (230°)6.9 mphClear
1:35 PM62.6 °F30.2 °F30 %30.17 in10.0 miWSW (250°)4.6 mphClear
1:55 PM62.6 °F30.2 °F30 %30.16 in10.0 miWNW (300°)4.6 mphClear
2:15 PM62.6 °F28.4 °F27 %30.16 in10.0 miCalmClear
2:35 PM62.6 °F28.4 °F27 %30.16 in10.0 miWSW (240°)3.5 mphClear
2:55 PM64.4 °F28.4 °F26 %30.15 in10.0 miWSW (250°)4.6 mphClear
3:15 PM64.4 °F26.6 °F24 %30.15 in10.0 miNW (310°)4.6 mphClear
3:35 PM64.4 °F26.6 °F24 %30.14 in10.0 miSouth (190°)4.6 mphClear
3:55 PM64.4 °F26.6 °F24 %30.14 in10.0 miSE (130°)3.5 mphClear
4:15 PM64.4 °F26.6 °F24 %30.13 in10.0 miSE (140°)4.6 mphClear
4:35 PM64.4 °F26.6 °F24 %30.13 in10.0 miSSW (210°)4.6 mphClear
4:55 PM64.4 °F26.6 °F24 %30.13 in10.0 miSSW (200°)3.5 mphClear
5:15 PM64.4 °F26.6 °F24 %30.13 in10.0 miCalmClear
5:35 PM62.6 °F26.6 °F26 %30.13 in10.0 miSSW (210°)3.5 mphClear
5:55 PM62.6 °F26.6 °F26 %30.13 in10.0 miSW (230°)4.6 mphClear
6:15 PM60.8 °F26.6 °F27 %30.14 in10.0 miWest (280°)4.6 mphClear
6:35 PM60.8 °F24.8 °F25 %30.14 in10.0 miWNW (290°)4.6 mphClear
6:55 PM60.8 °F23.0 °F23 %30.14 in10.0 miCalmClear
7:15 PM60.8 °F24.8 °F25 %30.15 in10.0 miCalmClear
7:35 PM59.0 °F24.8 °F27 %30.15 in10.0 miNE (50°)3.5 mphClear
7:55 PM57.2 °F28.4 °F33 %30.15 in10.0 miENE (60°)5.8 mphClear
8:15 PM55.4 °F28.4 °F36 %30.15 in10.0 miNE (50°)8.1 mphClear
8:35 PM55.4 °F28.4 °F36 %30.16 in10.0 miNE (50°)8.1 mphClear
8:55 PM55.4 °F28.4 °F36 %30.17 in10.0 miNE (40°)8.1 mphClear
9:15 PM53.6 °F30.2 °F41 %30.17 in10.0 miNE (40°)4.6 mphClear
9:35 PM53.6 °F30.2 °F41 %30.18 in10.0 miNE (40°)9.2 mphClear
9:55 PM51.8 °F30.2 °F44 %30.18 in10.0 miNE (40°)10.4 mphClear
10:15 PM51.8 °F30.2 °F44 %30.18 in10.0 miNE (40°)12.7 mphClear
10:35 PM51.8 °F30.2 °F44 %30.18 in10.0 miNE (40°)11.5 mphClear
10:55 PM51.8 °F28.4 °F41 %30.18 in10.0 miNE (40°)12.7 mphClear
11:15 PM51.8 °F28.4 °F41 %30.18 in10.0 miNE (40°)12.7 mphClear
11:35 PM50.0 °F28.4 °F43 %30.18 in10.0 miNNE (30°)15.0 mphClear
11:55 PM50.0 °F28.4 °F43 %30.17 in10.0 miNE (40°)13.8 mphClear
Hourly data recorded from KSEZ, located miles away from Rimrock, Arizona







STORIES FROM OUR PARTNERS